Wind_Speed
12 11 11 12 11 11 10 9 8 9 10 12 12 12 13 15 14 9 11 8 11 16 15 13 13 14 17 21 23 24 16 18 25 23 18 25 21 28 16 20 23 24 16 9 7
14 13 12 12 12 11 10 9 9 10 11 11 12 13 16 17 15 7 7 9 15 15 9 8 14 16 22 19 20 19 17 28 24 22 19 21 21 28 16 23 22 27 11 2 18
15 14 13 13 12 11 11 10 10 11 12 13 15 14 16 12 9 7 3 11 9 8 7 11 13 16 23 26 28 27 27 25 30 33 29 30 25 17 18 21 25 22 20 10 10
17 15 14 13 12 12 12 12 12 13 14 16 16 13 9 5 2 4 11 9 8 10 6 9 13 18 19 21 28 27 35 35 36 34 34 29 33 19 20 25 32 24 30 12 19
19 17 16 14 13 13 13 12 12 13 14 16 14 13 7 7 1 7 11 13 12 7 9 9 12 16 19 20 25 29 29 38 38 36 34 37 32 29 21 29 33 34 28 27 25
19 19 18 17 15 15 14 14 14 15 15 16 10 9 7 14 3 4 7 8 8 8 9 10 12 15 21 22 22 27 32 34 37 38 35 30 31 30 36 27 30 33 36 14 18
20 20 19 17 16 15 14 14 14 16 16 11 8 8 10 12 3 5 6 10 10 8 9 10 12 11 15 18 22 23 26 26 29 30 29 34 26 30 36 33 33 33 35 33 33
22 23 21 18 17 15 14 13 14 15 11 6 8 5 9 3 4 4 9 10 8 11 13 14 12 14 17 19 26 22 23 20 25 27 30 26 29 29 39 29 30 33 36 35 35
24 23 21 19 17 15 12 12 12 11 7 5 3 4 11 5 3 7 11 11 13 12 11 11 11 15 16 14 15 16 20 24 26 24 23 26 31 27 34 31 31 32 34 37 35
26 26 23 19 15 12 10 13 13 10 4 5 8 8 11 7 7 11 10 11 12 12 13 12 15 13 13 13 16 17 20 20 26 24 25 25 29 29 34 34 30 32 33 37 36
27 28 27 20 12 7 7 7 5 2 8 15 16 16 13 6 9 8 8 10 11 11 14 13 12 13 17 17 20 19 21 25 26 26 26 22 25 27 24 31 30 29 29 36 45
26 26 25 17 9 3 5 7 7 10 12 17 17 14 12 9 8 10 9 10 14 14 15 13 15 15 15 17 19 20 23 25 24 24 21 24 28 29 21 21 25 29 33 34 32
25 25 21 14 5 2 4 5 9 11 9 7 4 5 7 6 11 15 7 10 14 16 15 15 17 20 19 19 22 20 19 22 23 20 20 24 26 26 27 27 27 30 31 34 34
25 24 17 5 3 6 2 8 11 10 5 7 7 4 5 4 17 4 9 8 12 16 17 15 19 20 20 22 19 21 20 23 22 19 17 18 18 21 22 24 21 29 35 27 27
24 21 11 2 5 7 8 11 12 4 4 4 8 5 5 9 12 12 5 9 13 15 14 18 19 19 21 23 22 25 23 21 22 22 21 22 15 21 21 24 23 20 31 30 28
25 17 2 4 6 6 10 12 6 5 2 5 1 4 9 12 17 7 15 13 22 20 18 20 21 15 17 21 22 22 23 25 22 18 17 24 20 22 19 22 24 22 27 34 37
24 15 6 3 5 9 12 9 5 6 5 3 6 11 13 18 5 6 8 13 13 10 13 17 17 8 13 17 20 14 15 13 15 15 17 22 21 18 23 23 27 23 27 30 31
22 9 5 6 5 8 9 8 5 9 11 15 10 15 17 11 7 7 13 12 7 11 13 12 15 7 4 21 20 10 6 7 12 16 18 20 15 17 20 23 29 32 36 30 22
20 6 4 2 3 6 10 6 3 10 12 11 14 12 11 14 12 13 11 10 7 8 12 14 15 19 20 17 17 20 13 12 12 17 16 18 24 20 22 22 21 26 33 25 24
18 5 5 5 2 4 6 10 13 8 10 12 12 8 13 16 13 13 13 11 10 15 10 14 21 19 23 11 17 24 18 10 1 5 17 17 21 14 16 16 21 22 20 32 22
9 5 1 0 4 7 5 11 12 16 13 7 12 14 15 14 13 13 14 16 11 15 15 18 14 17 20 19 16 11 10 6 7 6 10 14 12 8 21 24 27 26 26 7 10
6 3 0 4 8 6 5 8 5 6 9 12 7 12 9 14 15 19 18 13 18 14 15 10 7 16 22 25 21 19 16 11 9 14 13 12 18 16 21 26 30 39 10 20 9
10 6 2 3 3 6 12 14 12 6 9 11 9 10 12 14 14 10 17 21 20 12 8 8 4 10 14 18 8 7 14 17 15 9 15 12 14 15 21 23 39 35 27 29 16
9 4 2 6 5 8 13 13 12 14 10 4 7 9 13 12 13 11 18 20 5 7 5 6 6 14 15 21 3 6 19 25 18 10 14 14 19 8 8 11 24 34 35 24 18
6 5 6 6 11 13 9 13 13 13 12 11 11 14 13 16 17 18 15 22 21 6 4 6 8 15 20 23 22 21 26 30 23 18 18 16 18 12 8 7 20 31 44 21 15
10 8 12 20 12 14 6 9 12 10 13 14 14 14 17 17 17 25 22 19 18 18 7 3 5 14 18 19 21 24 25 27 25 20 22 18 17 13 9 16 28 39 24 14 13
7 6 7 12 10 11 9 10 11 15 10 12 16 17 19 17 27 30 33 32 22 20 4 3 5 9 15 15 15 14 16 17 24 17 20 18 12 14 9 14 18 13 18 13 12
Wind_Direction
345 341 337 333 332 331 330 333 342 342 340 337 330 325 322 314 304 270 268 253 254 274 280 261 260 249 243 244 248 242 249 248 247 250 267 279 289 284 247 260 262 265 262 348 279
345 340 337 334 333 332 331 330 333 335 337 338 335 328 321 312 306 288 211 274 283 282 265 280 260 246 238 239 226 234 243 241 245 257 256 264 255 272 269 267 255 244 255 88 129
344 339 335 332 331 330 327 322 324 327 331 332 333 330 324 317 311 147 299 313 301 278 280 274 270 258 256 235 233 224 244 247 252 256 255 268 275 265 268 264 252 243 245 199 215
344 338 334 329 326 324 321 321 323 328 334 334 333 333 325 314 347 138 310 333 16 15 286 278 259 251 254 253 243 242 240 246 256 263 278 279 283 275 258 270 279 281 234 225 224
348 342 334 326 319 315 313 312 316 321 327 330 329 328 342 264 290 332 354 352 354 319 295 281 274 267 257 253 253 253 251 252 252 252 259 271 270 271 257 259 275 282 278 229 220
349 345 339 331 322 314 311 311 314 318 325 327 321 318 308 289 7 356 327 323 314 307 300 293 290 281 283 282 269 264 261 262 260 261 255 247 258 260 253 250 262 272 275 222 221
349 344 339 333 323 314 310 307 308 313 316 318 313 307 286 272 343 322 321 317 316 305 300 291 296 295 294 295 266 265 273 275 265 262 255 256 258 248 254 252 250 257 265 270 207
347 342 337 334 328 318 312 309 313 311 309 305 303 291 255 235 304 313 322 316 309 300 292 287 282 280 278 275 283 279 281 262 251 252 255 260 256 248 252 247 245 253 263 264 263
347 343 335 329 326 320 312 311 310 309 304 291 256 247 278 221 265 318 323 313 312 307 299 284 271 272 281 269 265 243 258 262 269 252 249 238 253 249 255 252 245 239 255 263 260
343 342 336 327 321 319 317 302 293 295 334 278 257 259 257 251 325 314 314 309 306 303 297 261 242 257 247 247 254 269 259 252 252 257 265 257 242 248 243 250 245 241 232 247 253
339 340 337 329 319 321 341 328 297 246 239 263 292 263 291 290 306 305 334 317 308 289 286 314 299 277 282 271 272 290 284 278 281 292 299 290 266 261 239 239 239 241 240 237 252
338 340 339 334 325 322 335 325 7 317 302 276 264 261 271 271 283 303 313 293 320 306 304 291 270 272 285 275 275 274 276 278 285 290 291 285 281 280 271 256 244 233 229 240 257
339 341 341 337 350 43 343 336 329 325 287 311 224 238 225 234 274 306 311 308 295 299 301 297 298 304 293 288 284 276 271 276 282 290 283 283 280 274 272 277 281 281 266 229 232
339 341 342 337 357 347 246 329 326 320 274 132 184 180 231 265 264 282 279 300 304 297 298 295 296 287 282 273 278 278 279 281 282 282 277 277 275 262 269 264 253 257 269 251 237
340 341 347 344 318 336 326 326 314 281 272 138 122 121 263 247 284 297 288 270 277 282 285 289 293 289 288 284 291 284 289 281 279 277 281 269 261 268 269 271 258 255 247 255 252
338 334 317 14 335 329 331 323 313 241 271 150 242 259 274 300 293 326 285 258 269 267 263 270 281 287 308 306 301 304 294 290 272 270 260 262 258 266 264 261 265 267 258 235 236
341 323 240 224 345 322 326 309 254 270 118 96 344 322 316 287 298 305 301 285 296 320 313 315 315 11 341 319 289 266 273 267 253 248 256 254 251 257 268 266 262 267 266 276 274
343 337 235 217 299 317 324 276 267 313 331 4 329 313 279 291 307 325 301 296 316 347 321 321 311 0 225 272 291 263 234 260 269 273 278 295 289 292 306 299 282 274 275 262 284
343 336 315 259 277 319 299 259 290 1 353 334 314 304 314 336 339 314 305 322 338 333 311 312 294 291 296 299 293 285 261 180 283 282 279 276 285 268 266 271 264 267 253 256 258
344 321 300 181 293 303 266 262 285 19 353 325 305 296 322 323 328 324 331 327 348 319 321 313 304 300 300 293 307 281 295 289 200 277 275 258 252 277 262 272 246 259 252 241 237
358 269 170 151 326 254 265 293 348 353 329 318 320 313 321 326 319 302 301 307 341 336 330 304 301 307 311 280 268 274 238 290 343 272 278 264 268 274 8 355 329 313 270 179 253
347 324 134 329 265 234 273 345 304 303 313 277 289 305 324 316 318 308 302 313 322 349 324 3 297 288 290 292 286 286 300 189 267 284 257 276 273 23 12 348 337 327 85 295 253
327 308 211 7 339 331 318 331 321 341 329 316 310 343 314 312 308 305 310 304 324 348 351 360 285 301 294 279 59 20 321 310 294 306 283 278 281 355 24 343 328 324 319 282 331
312 325 130 319 250 301 342 319 332 318 289 347 296 284 300 302 300 288 293 302 15 327 276 250 249 254 269 282 112 273 285 285 278 272 272 275 296 335 39 320 314 305 307 289 311
320 30 19 312 331 318 331 310 299 321 341 323 327 316 307 308 306 296 299 306 309 270 242 180 262 274 264 270 275 246 241 259 243 254 250 292 285 294 180 212 279 271 267 282 327
358 351 340 298 305 288 260 307 313 327 338 312 296 326 322 302 295 295 297 298 294 305 309 190 269 283 282 277 270 270 266 270 273 274 275 276 277 269 234 197 246 251 273 311 326
4 346 326 297 297 325 340 329 301 310 308 313 321 308 296 296 291 290 292 291 285 287 171 241 286 298 284 297 340 288 280 313 305 278 273 267 320 328 274 250 255 318 317 313 307
Height
1518 1516 1513 1512 1509 1507 1505 1503 1501 1499 1497 1496 1494 1491 1489 1486 1484 1483 1483 1481 1479 1479 1480 1482 1483 1485 1487 1486 1487 1485 1479 1474 1469 1465 1456 1449 1446 1442 1443 1444 1443 1441 1442 1444 1443
1518 1515 1513 1511 1509 1506 1504 1502 1500 1499 1497 1495 1493 1490 1486 1482 1479 1478 1480 1479 1479 1478 1479 1481 1481 1482 1482 1479 1482 1480 1472 1461 1457 1452 1449 1447 1447 1444 1444 1442 1441 1440 1441 1444 1446
1518 1515 1513 1510 1508 1506 1504 1502 1500 1498 1496 1494 1491 1488 1484 1481 1478 1478 1479 1479 1477 1477 1477 1480 1480 1480 1475 1474 1472 1472 1458 1458 1452 1450 1449 1447 1443 1444 1444 1442 1439 1439 1441 1444 1447
1517 1514 1512 1510 1507 1505 1503 1501 1499 1497 1494 1492 1489 1486 1483 1482 1475 1477 1478 1477 1476 1476 1478 1478 1478 1475 1473 1468 1466 1463 1455 1456 1452 1451 1450 1445 1443 1440 1444 1442 1439 1438 1439 1441 1444
1517 1514 1511 1508 1506 1503 1501 1499 1497 1495 1493 1491 1488 1485 1484 1483 1479 1476 1477 1476 1475 1476 1477 1476 1475 1471 1466 1463 1462 1451 1448 1449 1448 1448 1449 1448 1442 1441 1442 1444 1440 1438 1434 1436 1442
1517 1513 1510 1507 1504 1502 1499 1497 1495 1493 1491 1489 1487 1486 1484 1483 1479 1479 1479 1478 1478 1477 1475 1474 1471 1469 1465 1461 1455 1453 1448 1444 1441 1439 1440 1442 1440 1442 1434 1441 1441 1439 1433 1437 1445
1516 1512 1509 1506 1503 1500 1498 1495 1493 1491 1489 1488 1486 1485 1485 1481 1478 1479 1478 1477 1476 1475 1475 1473 1472 1472 1467 1461 1454 1454 1449 1442 1434 1435 1433 1439 1436 1429 1433 1437 1438 1437 1434 1435 1438
1515 1511 1506 1503 1501 1498 1495 1493 1491 1489 1487 1486 1485 1484 1482 1477 1477 1477 1477 1475 1474 1473 1471 1471 1471 1470 1468 1464 1456 1454 1447 1442 1426 1436 1429 1438 1429 1421 1429 1431 1432 1435 1434 1431 1431
1514 1510 1505 1502 1499 1496 1494 1492 1489 1487 1485 1484 1484 1484 1477 1475 1476 1475 1475 1473 1472 1470 1468 1467 1468 1467 1464 1459 1454 1445 1448 1440 1428 1422 1424 1428 1422 1414 1423 1424 1425 1429 1431 1429 1427
1513 1508 1504 1499 1496 1494 1492 1490 1487 1486 1485 1484 1484 1486 1476 1473 1473 1474 1473 1471 1469 1467 1465 1461 1460 1458 1454 1453 1452 1442 1432 1424 1423 1417 1418 1415 1411 1405 1412 1417 1416 1418 1422 1424 1422
1511 1506 1501 1497 1494 1492 1491 1488 1489 1488 1485 1479 1476 1473 1473 1472 1473 1472 1470 1470 1466 1464 1459 1455 1454 1450 1441 1437 1433 1432 1431 1426 1418 1413 1416 1412 1403 1394 1398 1403 1405 1408 1412 1414 1415
1508 1504 1499 1495 1492 1492 1490 1489 1489 1490 1480 1474 1471 1471 1472 1473 1472 1469 1469 1469 1466 1462 1458 1455 1450 1441 1437 1436 1436 1437 1437 1432 1425 1423 1423 1414 1407 1395 1391 1390 1393 1397 1401 1405 1407
1505 1501 1497 1494 1492 1491 1490 1491 1490 1488 1482 1467 1467 1468 1469 1471 1469 1467 1468 1467 1465 1461 1456 1455 1449 1444 1441 1440 1439 1434 1436 1433 1431 1426 1424 1418 1413 1401 1390 1390 1390 1391 1392 1393 1398
1504 1499 1495 1493 1493 1491 1491 1491 1489 1487 1478 1464 1465 1466 1468 1467 1462 1465 1465 1468 1465 1462 1458 1454 1449 1445 1441 1438 1437 1436 1428 1425 1424 1427 1432 1417 1418 1403 1392 1388 1388 1389 1387 1387 1390
1502 1498 1494 1492 1492 1490 1492 1490 1487 1487 1471 1461 1460 1467 1466 1466 1462 1457 1461 1463 1461 1458 1457 1453 1446 1442 1440 1436 1430 1428 1424 1423 1422 1422 1421 1420 1420 1393 1396 1387 1384 1380 1381 1381 1384
1500 1496 1494 1494 1493 1493 1491 1488 1487 1483 1471 1457 1460 1461 1459 1455 1454 1454 1454 1454 1451 1446 1443 1442 1442 1440 1440 1438 1437 1433 1430 1423 1418 1417 1420 1413 1413 1397 1392 1386 1380 1375 1372 1373 1375
1497 1493 1492 1492 1493 1492 1490 1487 1484 1472 1455 1454 1457 1457 1456 1452 1450 1449 1451 1448 1445 1449 1446 1440 1439 1440 1448 1444 1432 1429 1430 1435 1427 1420 1410 1398 1401 1390 1380 1379 1376 1371 1368 1366 1366
1495 1491 1491 1491 1493 1492 1490 1486 1483 1457 1455 1457 1460 1459 1453 1443 1444 1446 1446 1443 1438 1443 1445 1450 1449 1443 1446 1445 1436 1428 1456 1452 1434 1422 1404 1389 1399 1388 1376 1376 1372 1369 1367 1364 1362
1492 1491 1490 1490 1492 1492 1491 1482 1471 1465 1465 1468 1465 1456 1450 1445 1447 1446 1442 1442 1441 1444 1451 1449 1444 1436 1433 1430 1430 1423 1422 1432 1432 1417 1422 1399 1387 1376 1373 1371 1369 1365 1363 1358 1358
1490 1488 1491 1491 1491 1492 1489 1481 1469 1466 1470 1470 1471 1461 1460 1454 1453 1450 1448 1443 1445 1448 1444 1444 1442 1435 1429 1427 1433 1424 1414 1420 1427 1439 1420 1401 1392 1383 1370 1365 1365 1361 1356 1353 1350
1491 1488 1490 1490 1490 1489 1485 1472 1468 1472 1475 1475 1469 1468 1463 1462 1459 1455 1452 1446 1445 1446 1448 1444 1443 1436 1436 1422 1415 1414 1412 1418 1430 1430 1422 1407 1388 1371 1385 1393 1390 1369 1354 1346 1349
1493 1489 1491 1490 1490 1485 1477 1472 1474 1472 1475 1471 1469 1468 1469 1466 1463 1460 1455 1448 1453 1449 1450 1448 1449 1441 1430 1414 1407 1405 1406 1417 1414 1419 1409 1399 1385 1384 1400 1402 1401 1387 1358 1355 1347
1495 1490 1489 1489 1488 1484 1479 1472 1471 1471 1472 1471 1469 1471 1471 1469 1469 1459 1457 1453 1451 1454 1458 1462 1450 1448 1429 1409 1417 1423 1425 1415 1409 1417 1411 1407 1388 1390 1403 1410 1400 1392 1375 1362 1345
1499 1489 1488 1488 1486 1483 1479 1480 1473 1471 1469 1471 1472 1471 1469 1466 1463 1461 1456 1451 1453 1458 1461 1464 1457 1451 1440 1425 1435 1443 1433 1411 1409 1412 1402 1394 1392 1392 1415 1416 1409 1398 1384 1359 1341
1502 1497 1500 1492 1489 1488 1486 1485 1478 1472 1468 1468 1468 1468 1467 1468 1461 1458 1452 1448 1445 1448 1453 1460 1448 1438 1428 1420 1417 1417 1418 1395 1396 1388 1392 1379 1383 1377 1396 1402 1397 1383 1376 1361 1347
1512 1511 1505 1500 1493 1487 1480 1478 1480 1476 1480 1477 1473 1471 1468 1464 1461 1453 1449 1447 1444 1442 1449 1450 1441 1433 1422 1413 1407 1402 1391 1383 1377 1380 1372 1369 1371 1364 1366 1378 1379 1375 1365 1357 1346
1516 1516 1515 1501 1487 1481 1478 1480 1481 1482 1481 1476 1476 1475 1469 1463 1457 1450 1444 1440 1438 1438 1449 1450 1441 1432 1417 1409 1415 1403 1380 1379 1374 1373 1369 1367 1365 1362 1365 1366 1364 1359 1356 1351 1349